Location: Praha
(50.0830°N, 14.4670°E)
Time: 21:07:18
(UTC+01:00)

ISS - Pass Details

Date: 08 December 2019
Orbit: 411 x 421 km, 51.6° (Epoch: 08 December)

Event Time Altitude Azimuth Distance (km) Brightness Sun altitude
Rises 16:48:04 0° 286° (WNW) 2,357 0.9 -7.4°
Reaches altitude 10° 16:50:10 10° 285° (WNW) 1,494 -0.2 -7.7°
Maximum altitude 16:53:31 79° 200° (SSW) 430 -3.6 -8.2°
Drops below altitude 10° 16:56:52 10° 113° (ESE) 1,495 -1.3 -8.6°
Enters shadow 16:58:07 - 112° (ESE) 2,011 -0.7 -8.8°
